Home   Weather   Köniz   Past weeks

Flag for Switzerland Past Weather in Köniz, Bern, Switzerland — Yesterday and Last 2 Weeks

Now
30 °F

Overcast.


Feels Like: 30 °F
Forecast: 21 / 43 °F
Wind: No wind

Location: Bern / Belp

Current Time: Dec 4, 2016 at 9:13:45 am

Latest Report: Dec 4, 2016 at 8:20 am


Visibility: 4 mi

Pressure: 30.21 "Hg (28.09 "Hg at 579m altitude)

Humidity: 93%

Dew Point: 28 °F

Location of KönizLocation

Past Weather in Köniz — Graph

°F

Köniz Temperature Yesterday

Maximum temperature yesterday: 39 °F (at 2:20 pm)
Minimum temperature yesterday: 21 °F (at 3:20 am)
Average temperature yesterday: 31 °F

High & Low Weather Summary for the Past Weeks

 TemperatureHumidityPressure
High55 °F (Nov 22, 12:50 pm)100% (Nov 19, 9:20 pm)30.57 "Hg (Nov 19, 9:20 pm)
Low19 °F (Dec 1, 7:20 am)53% (Dec 1, 2:20 pm)29.62 "Hg (Nov 21, 7:20 am)
Average37 °F89%30.04 "Hg
* Reported Nov 19 7:20 am — Dec 4 7:50 am, Köniz, Weather by CustomWeather, © 2016

Note: Actual official high and low records may vary slightly from our data, if they occured in-between our weather recording intervals... More about our weather records

Advertising

Köniz Weather History for the Previous 24 Hours

Scroll right to see more
 ConditionsComfort  
Time TempWeatherWind HumidityBarometerVisibility
7:50 am
Sun, Dec 4
30 °FOvercast.2 mph93%30.21 "Hg4 mi
7:20 am30 °FOvercast.2 mph93%30.21 "Hg4 mi
6:50 am30 °FOvercast.2 mph93%30.21 "Hg4 mi
6:20 am30 °FOvercast.3 mph86%30.21 "Hg4 mi
5:50 am30 °FOvercast.2 mph93%30.21 "Hg4 mi
5:20 am30 °FOvercast.2 mph93%30.21 "Hg4 mi
4:50 am30 °FOvercast.3 mph93%30.21 "Hg4 mi
4:20 am30 °FOvercast.2 mph93%30.21 "Hg4 mi
3:50 am30 °FOvercast.3 mph93%30.21 "Hg4 mi
3:20 am32 °FOvercast.2 mph93%30.21 "Hg4 mi
2:50 am30 °FOvercast.2 mph100%30.18 "Hg4 mi
2:20 am30 °FOvercast.2 mph93%30.18 "Hg4 mi
1:50 am30 °FOvercast.2 mph93%30.18 "Hg4 mi
1:20 am30 °FOvercast.3 mph93%30.18 "Hg4 mi
12:50 am32 °FOvercast.2 mph93%30.18 "Hg4 mi
12:20 am32 °FOvercast.2 mph93%30.18 "Hg5 mi
11:50 pm
Sat, Dec 3
34 °FOvercast.2 mph87%30.18 "Hg6 mi
11:20 pm32 °FOvercast.1 mph93%30.18 "Hg5 mi
10:50 pm32 °FOvercast.No wind93%30.18 "Hg5 mi
10:20 pm32 °FOvercast.No wind93%30.15 "Hg5 mi
9:50 pm32 °FPassing clouds.1 mph93%30.15 "Hg5 mi
9:20 pm32 °FOvercast.2 mph93%30.15 "Hg4 mi
8:50 pm32 °FOvercast.3 mph93%30.15 "Hg5 mi
8:20 pm32 °FOvercast.3 mph93%30.15 "Hg6 mi
7:50 pm32 °FOvercast.3 mph87%30.15 "Hg5 mi
7:20 pm34 °FOvercast.1 mph87%30.15 "Hg6 mi
6:50 pm34 °FOvercast.3 mph93%30.15 "HgN/A
6:20 pm34 °FOvercast.1 mph87%30.12 "HgN/A
5:50 pm34 °FPassing clouds.3 mph87%30.12 "HgN/A
5:20 pm34 °FPassing clouds.6 mph87%30.12 "HgN/A
4:50 pm36 °FPassing clouds.6 mph81%30.09 "HgN/A
4:20 pm36 °FScattered clouds.5 mph81%30.09 "HgN/A
3:50 pm37 °FScattered clouds.7 mph75%30.09 "HgN/A
3:20 pm39 °FScattered clouds.5 mph70%30.09 "HgN/A
2:50 pm37 °FPartly sunny.3 mph75%30.07 "HgN/A
2:20 pm39 °FPartly sunny.No wind75%30.07 "HgN/A
1:50 pm37 °FPartly sunny.No wind81%30.07 "HgN/A
1:20 pm37 °FPartly sunny.1 mph75%30.09 "Hg5 mi
12:50 pm36 °FPartly sunny.1 mph81%30.09 "HgN/A
12:20 pm36 °FOvercast.2 mph81%30.09 "Hg6 mi
11:50 am34 °FOvercast.2 mph81%30.09 "Hg6 mi
11:20 am34 °FOvercast.3 mph87%30.09 "HgN/A
10:50 am32 °FOvercast.3 mph93%30.09 "Hg5 mi
10:20 am32 °FOvercast.3 mph93%30.09 "Hg4 mi
9:50 am30 °FOvercast.3 mph93%30.09 "Hg5 mi
9:20 am28 °FPartly sunny.5 mph100%30.07 "Hg4 mi
Weather by CustomWeather, © 2016

See weather overviewHow to use our weather pages